DateTimeUTC,F1_A11,F1_S11,BsB_S11,BsG_S11,BsR_S11,BbsB_S11,BbsG_S11,BbsR_S11,BaB_A11,BaG_A11,BaR_A11,Tu_S11,T_S11,Uu_S11,U_S11,P_S11,T1_A11
2021-08-19T14:00:00Z,00000200,20000000,,,,,,,0000.27,-000.14,-000.18,20.5,27.0,15.5,10.5,0675.8,31.2
2021-08-19T14:01:00Z,00000200,20000000,,,,,,,-000.16,0000.21,-000.05,20.5,27.0,15.5,10.5,0675.8,31.1
2021-08-19T14:02:00Z,00000200,20000000,,,,,,,0000.18,0000.12,0000.13,20.5,27.0,15.5,10.5,0675.8,31.1
2021-08-19T14:03:00Z,00000200,60000000,,,,,,,-000.02,0000.06,0000.32,20.5,27.0,15.5,10.5,0675.8,31.1
2021-08-19T14:04:00Z,00000200,40000000,0001.70,0000.83,0000.02,-000.25,0000.02,-000.43,0000.30,0000.38,-000.06,20.6,26.9,15.4,10.6,0676.7,31.1
2021-08-19T14:05:00Z,00000200,00000000,0000.81,0000.87,0000.56,0000.20,0000.09,0000.17,-000.01,-000.18,0000.31,20.7,26.9,15.3,10.5,0676.8,31.1
2021-08-19T14:06:00Z,00000200,00000000,0000.56,0000.96,0000.98,-000.02,0000.13,0000.19,0000.20,0000.23,0000.08,20.7,26.8,15.4,10.6,0676.8,31.1
2021-08-19T14:07:00Z,00000200,00000000,0000.70,0000.97,0000.38,0000.05,0000.14,0000.17,0000.58,0000.41,0000.05,20.7,26.8,15.5,10.7,0676.8,31.1
2021-08-19T14:08:00Z,00000200,00000000,0001.04,0001.30,0000.16,-000.46,0000.12,-000.17,0000.41,0000.66,0000.63,20.7,26.8,15.6,10.7,0676.8,31.1
2021-08-19T14:09:00Z,00000200,00000000,0001.60,0001.26,0000.61,0000.13,-000.01,0000.03,0000.01,-000.34,0000.11,20.7,26.8,15.7,10.8,0676.7,31.1
2021-08-19T14:10:00Z,00000200,00000000,0001.02,0001.18,0000.37,-000.11,0000.17,0000.34,0000.55,0000.56,0000.15,20.7,26.8,15.6,10.8,0676.7,31.1
2021-08-19T14:11:00Z,00000200,00000000,0000.99,0001.16,0000.39,-000.09,-000.02,0000.09,0000.15,0000.28,0000.30,20.7,26.8,15.6,10.8,0676.7,31.1
2021-08-19T14:12:00Z,00000200,00000000,0001.70,0001.19,0000.31,0000.38,0000.18,-000.05,0000.29,0000.35,-000.19,20.8,26.8,15.4,10.7,0676.7,31.1
2021-08-19T14:13:00Z,00000200,00000000,0000.95,0001.03,0000.50,0000.07,-000.08,0000.16,0000.24,0000.03,0000.45,20.8,26.8,15.4,10.7,0676.7,31.2
2021-08-19T14:14:00Z,00000200,00000000,0001.38,0000.62,0000.57,-000.03,-000.09,0000.13,0000.22,0000.32,0000.06,20.8,26.8,15.3,10.6,0676.7,31.1
2021-08-19T14:15:00Z,00000200,00000000,0001.44,0000.52,0000.47,0000.56,-000.10,0000.38,0000.51,0000.36,0000.52,20.8,26.8,15.4,10.7,0676.7,31.1
2021-08-19T14:16:00Z,00000200,00000000,0001.45,0000.77,0000.51,-000.29,0000.19,0000.05,0000.27,0000.00,-000.09,20.8,26.8,15.3,10.6,0676.7,31.1
2021-08-19T14:17:00Z,00000200,00000000,0001.05,0000.81,0000.42,-000.22,0000.05,0000.28,0000.17,0000.56,0000.37,20.8,26.8,15.2,10.6,0676.7,31.1
2021-08-19T14:18:00Z,00000200,00000000,0000.72,0000.98,0000.40,-000.29,0000.50,-000.04,0000.25,-000.08,-000.02,20.8,26.8,15.3,10.6,0676.7,31.1
2021-08-19T14:19:00Z,00000200,00000000,0001.32,0000.73,0000.46,0000.48,0000.12,0000.29,-000.13,0000.31,-000.00,20.8,26.8,15.2,10.6,0676.7,31.2
2021-08-19T14:20:00Z,00000200,00000000,0000.28,0000.67,0000.47,0000.08,-000.09,0000.26,0000.40,0000.10,0000.44,20.8,26.8,15.3,10.6,0676.7,31.1
2021-08-19T14:21:00Z,00000200,00000000,0001.73,0000.84,0000.06,0000.37,-000.11,0000.40,0000.24,0000.25,0000.13,20.8,26.8,15.4,10.7,0676.7,31.1
2021-08-19T14:22:00Z,00000200,00000000,0000.58,0000.48,0000.51,0000.25,-000.18,0000.27,0000.33,0000.48,0000.11,20.7,26.8,15.4,10.7,0676.7,31.2
2021-08-19T14:23:00Z,00000200,00000000,0001.16,0000.79,0000.69,0000.53,0000.04,0000.08,0000.37,-000.04,-000.16,20.8,26.8,15.3,10.6,0676.7,31.2
2021-08-19T14:24:00Z,00000200,00000000,0000.72,0001.02,0000.79,0000.13,0000.18,0000.08,0000.20,0000.33,0000.49,20.8,26.8,15.4,10.7,0676.7,31.1
2021-08-19T14:25:00Z,00000200,00000000,0002.20,0000.73,0000.52,-000.14,-000.00,0000.30,0000.22,0000.52,0000.40,20.8,26.8,15.4,10.7,0676.8,31.1
2021-08-19T14:26:00Z,00000200,00000000,0000.69,0000.99,0000.51,-000.22,0000.11,0000.19,0000.40,0000.22,0000.08,20.8,26.8,15.4,10.7,0676.8,31.1
2021-08-19T14:27:00Z,00000200,00000000,0000.48,0000.68,0000.38,-000.00,0000.20,0000.16,0000.19,0000.13,0000.18,20.8,26.8,15.3,10.6,0676.7,31.1
2021-08-19T14:28:00Z,00000200,00000000,0000.82,0000.90,0000.37,-000.30,-000.26,0000.25,0000.26,0000.04,0000.14,20.8,26.8,15.3,10.6,0676.8,31.1
2021-08-19T14:29:00Z,00000200,00000000,0001.46,0000.96,0000.45,-000.28,0000.10,0000.37,0000.00,-000.13,0000.15,20.8,26.8,15.4,10.7,0676.7,31.1
2021-08-19T14:30:00Z,00000200,00000000,0000.82,0000.56,0000.24,-000.11,0000.00,0000.12,0000.16,0000.53,0000.22,20.8,26.8,15.4,10.7,0676.8,31.1
2021-08-19T14:31:00Z,00000200,00000000,0000.84,0001.00,0000.34,0000.28,-000.04,0000.00,0000.55,0000.38,0000.34,20.8,26.8,15.2,10.6,0676.7,31.1
2021-08-19T14:32:00Z,00000200,00000000,0000.81,0000.52,0000.39,-000.22,0000.13,0000.42,-000.15,-000.21,-000.22,20.8,26.8,15.2,10.6,0676.7,31.2
2021-08-19T14:33:00Z,00000200,00000000,0000.73,0000.57,0000.54,0000.22,0000.24,0000.02,0000.28,0000.15,0000.36,20.8,26.8,15.2,10.5,0676.8,31.2
2021-08-19T14:34:00Z,00000200,00000000,0000.90,0000.68,0000.61,0000.28,-000.25,0000.03,0000.33,0000.60,-000.00,20.8,26.8,15.2,10.5,0676.8,31.1
2021-08-19T14:35:00Z,00000200,00000000,0001.52,0000.86,0000.26,-000.51,0000.11,0000.23,0000.06,0000.15,0000.22,20.8,26.8,15.2,10.5,0676.8,31.1
2021-08-19T14:36:00Z,00000200,00000000,0000.59,0000.92,0000.25,0000.01,0000.25,-000.24,0000.58,0000.01,-000.18,20.8,26.8,15.2,10.5,0676.7,31.1
2021-08-19T14:37:00Z,00000200,00000000,0000.53,0000.67,0000.53,-000.17,-000.09,0000.08,0000.14,0000.27,0000.44,20.8,26.8,15.2,10.5,0676.8,31.1
2021-08-19T14:38:00Z,00000200,00000000,-000.06,0000.63,0000.27,-000.12,0000.14,-000.04,0000.11,0000.25,0000.25,20.8,26.8,15.2,10.6,0676.8,31.1
2021-08-19T14:39:00Z,00000200,00000000,0000.79,0001.00,0000.07,-000.24,0000.07,-000.02,0000.18,0000.14,0000.09,20.8,26.8,15.3,10.6,0676.8,31.1
2021-08-19T14:40:00Z,00000200,00000000,0001.08,0000.94,0000.06,-000.12,-000.10,0000.15,0000.63,0000.35,0000.13,20.8,26.9,15.3,10.6,0676.8,31.1
2021-08-19T14:41:00Z,00000200,00000000,0001.50,0000.63,0000.69,0000.27,0000.14,0000.46,-000.10,0000.10,0000.19,20.8,26.9,15.2,10.6,0676.7,31.1
2021-08-19T14:42:00Z,00000200,00000000,0001.31,0000.81,0000.18,-000.21,0000.10,0000.05,0000.14,-000.01,0000.07,20.8,26.9,15.1,10.5,0676.7,31.1
2021-08-19T14:43:00Z,00000200,00000000,0000.64,0000.46,0000.23,-000.29,-000.10,-000.04,0000.30,0000.14,0000.46,20.8,26.8,15.1,10.5,0676.7,31.1
2021-08-19T14:44:00Z,00000200,00000000,0000.02,0000.66,0000.02,-000.22,0000.23,-000.06,0000.18,0000.53,0000.11,20.8,26.8,15.2,10.5,0676.7,31.1
2021-08-19T14:45:00Z,00000200,00000000,0000.93,0000.75,0000.25,0000.13,-000.21,0000.30,0000.35,0000.06,-000.19,20.8,26.8,15.2,10.6,0676.7,31.1
2021-08-19T14:46:00Z,00000200,00000000,0001.27,0000.91,0000.14,-000.21,-000.06,0000.01,0000.24,0000.22,0000.25,20.8,26.8,15.0,10.4,0676.7,31.2
2021-08-19T14:47:00Z,00000200,00000000,0001.23,0000.85,0000.28,0000.38,-000.07,0000.13,0000.06,0000.20,0000.18,20.8,26.8,15.2,10.6,0676.7,31.1
2021-08-19T14:48:00Z,00000200,00000000,0000.82,0000.57,0000.27,-000.48,-000.04,-000.15,0000.18,0000.12,0000.05,20.8,26.8,15.2,10.5,0676.7,31.1
2021-08-19T14:49:00Z,00000200,00000000,0000.92,0000.80,0000.59,0000.65,-000.12,0000.23,0000.35,0000.20,0000.33,20.8,26.8,15.2,10.5,0676.7,31.2
2021-08-19T14:50:00Z,00000200,00000000,0000.41,0000.62,0000.35,0000.11,-000.19,0000.24,0000.09,0000.22,-000.08,20.8,26.8,15.1,10.5,0676.7,31.2
2021-08-19T14:51:00Z,00000200,00000000,0000.65,0000.59,0000.39,0000.04,0000.14,0000.31,0000.10,0000.14,-000.05,20.8,26.9,15.2,10.6,0676.7,31.2
2021-08-19T14:52:00Z,00000200,00000000,0001.17,0000.72,0000.06,0000.16,0000.10,-000.17,0000.55,0000.40,0000.48,20.8,26.8,15.2,10.6,0676.7,31.2
2021-08-19T14:53:00Z,00000200,00000000,0000.34,0000.67,0000.45,0000.10,-000.06,0000.13,0000.04,-000.04,-000.17,20.8,26.9,15.2,10.6,0676.7,31.2
2021-08-19T14:54:00Z,00000200,00000000,0001.31,0000.84,0000.45,-000.42,0000.21,0000.23,0000.05,0000.07,0000.46,20.8,26.8,15.1,10.6,0676.7,31.2
2021-08-19T14:55:00Z,00000200,00000000,0000.86,0000.47,-000.09,0000.20,0000.02,0000.46,0000.31,0000.63,0000.23,20.8,26.8,15.2,10.6,0676.7,31.1
2021-08-19T14:56:00Z,00000200,00000000,0001.08,0000.63,0000.40,0000.14,0000.15,0000.31,0000.32,0000.21,0000.04,20.8,26.8,15.1,10.5,0676.7,31.1
2021-08-19T14:57:00Z,00000200,40000000,,,,,,,-000.01,-000.36,0000.07,20.9,26.9,15.3,10.7,0676.7,31.1
2021-08-19T14:58:00Z,00000200,60000000,,,,,,,0000.08,0000.49,0000.08,20.6,26.9,15.3,10.4,0675.7,31.1
2021-08-19T14:59:00Z,00000200,20000000,,,,,,,-000.22,-000.45,0000.09,20.6,27.0,15.2,10.3,0675.7,31.1
